Preview of NWS' New Version of Forecast
This preview is not operational and should not be used for support decisions.

Regional Weather Roundup (RWR)

Issued by Gray - Portland, ME (GYX)

                            
702 
ASUS41 KGYX 210805
RWRGYX
WEATHER ROUNDUP FOR MAINE AND NEW HAMPSHIRE
NATIONAL WEATHER SERVICE GRAY ME
300 AM EST WED FEB 21 2018

MEZ002-005-006-010-012-015-018-020-021-024-026-027-029-210900-
MAINE
  
CITY           SKY/WX    TMP DP  RH WIND       PRES   REMARKS
PORTLAND       FOG       36  36 100 CALM      30.24F VSB 1/4          
SANFORD        FOG       33  33 100 CALM      30.24F VSB 1/2          
BAR HARBOR     FOG       37  37 100 N3        30.23F VSB 1/4          
WISCASSET      FOG       34  34 100 CALM      30.24F VSB 1/4          
ROCKLAND       FOG       38  38 100 CALM      30.23F VSB 1/4          
FRYEBURG       FOG       35  35 100 NW3       30.22F VSB 1/2          
LEWISTONAUBURN FOG       35  35 100 CALM      30.23F VSB 1/4          
AUGUSTA        FOG       36  35  96 CALM      30.21F VSB 1/4          
WATERVILLE     FOG       35  35 100 CALM      30.16F VSB 1/4          
BANGOR         FOG       34  34 100 CALM      30.22F VSB 1/4          
GREENVILLE       N/A     34  34 100 SE9       30.12F                  
MILLINOCKET    FOG       35  35 100 CALM      30.20F VSB 1            
HOULTON        CLOUDY    31  30  96 SE6       30.19F                  
PRESQUE ISLE   MIX PCPN  30  29  96 SE14      30.16F WCI  19          
FRENCHVILLE    FRZ RAIN  28  27  96 SE18      30.09F FOG     WCI  15  
CARIBOU        CLOUDY    30  28  92 S12       30.14F FOG              
$$

NHZ002-005-008-009-011-012-014-210900-
NEW HAMPSHIRE
  
CITY           SKY/WX    TMP DP  RH WIND       PRES   REMARKS
PORTSMOUTH     FOG       37  36  99 CALM      30.23F VSB 1/16         
ROCHESTER      FOG       36  36 100 CALM      30.23F VSB 1/4          
NASHUA         FAIR      36  36 100 CALM      30.24F FOG              
MANCHESTER     FOG       38  38 100 CALM      30.23S VSB 1            
CONCORD        FOG       37  35  92 CALM      30.24F VSB 1/4          
LACONIA        FOG       34  34 100 CALM      30.23S VSB 1/4          
PLYMOUTH       FAIR      33  32  98 CALM      30.23S                  
BERLIN         FOG       35  34  96 CALM      30.15F VSB 1/2          
WHITEFIELD     FAIR      35  35 100 CALM      30.15F                  
JAFFREY        FOG       36  32  85 S3        30.24F VSB 1/4          
KEENE          MOCLDY    32  31  96 CALM      30.25F                  
LEBANON        FAIR      36  35  96 CALM      30.20R                  
MT WASHINGTON  FOG       45  45 100 W61G76      N/A  VSB 0            
$$

VTZ005-007-008-210900-
VERMONT
  
CITY           SKY/WX    TMP DP  RH WIND       PRES   REMARKS
ST JOHNSBURY     N/A     37  37 100 MISG      30.14F                  
MONTPELIER     FAIR      50  49  96 S7        30.18S                  
BURLINGTON     FAIR      60  51  72 S20G28    30.09F                  
$$

MAZ007-012-024-CTZ003-RIZ002-NYZ038-NYZ072-210900-
SOUTHERN NEW ENGLAND AND NY
  
CITY           SKY/WX    TMP DP  RH WIND       PRES   REMARKS
BOSTON         FAIR      50  48  93 SW10      30.25F                  
WORCESTER      FAIR      53  32  44 SW14      30.26F                  
NANTUCKET      FOG       44  44 100 SW10      30.34F VSB 1/4          
PROVIDENCE     CLOUDY    56  55  97 SW10      30.29F                  
HARTFORD       MOCLDY    48  48 100 CALM      30.27F FOG              
ALBANY         FAIR      55  50  83 S8        30.21F                  
NEW YORK CITY  FOG       52  51  97 S9        30.30F VSB<1/4          
$$

ANZ081-ANZ082-ANZ150-NHZ014-MEZ023>029-210900-
COASTAL MARINE OBSERVATIONS
  
STATION/POSITION TIME  TEMP    WIND        PRES    WAVE
                       AIR SEA DIR/SP/G            HT/PER
                 (UTC) (F)     (DEG/KT/KT) (MB)    (FT/S)
MOUNT DESERT ROC 0800   43     180/  7/  9 1023.5F
MATINICUS ROCK   0700   42     220/  7/  7 1023.7F
ISLE OF SHOALS   0700   38     130/  3/  3 1024.5F
JEFFREYS LEDGE   0736      42                N/A     4/12
GEORGES BANK BUO 0650   47 61              1025.8    8/ 8
$$

.............KEY..............
   WCI - WIND CHILL
   TC  - TEMPERATURE IN CELSIUS
   VSB - VISIBILITY IN MILES
   HX  - HEAT INDEX
   FAIR- INDICATES FEW OR NO CLOUDS BELOW 12,000 FT, WITH NO 
         SIGNIFICANT WEATHER AND/OR OBSTRUCTIONS TO VISIBILITY.